TimeMST,TemperatureF,Dew PointF,Humidity,Sea Level PressureIn,VisibilityMPH,Wind Direction,Wind SpeedMPH,Gust SpeedMPH,PrecipitationIn,Events,Conditions,WindDirDegrees,DateUTC
12:15 AM,17.6,-27.4,12,29.94,10.0,WNW,13.8,-,N/A,,Clear,290,2013-01-05 07:15:00
12:35 AM,17.6,-27.4,12,29.94,10.0,West,15.0,-,N/A,,Clear,280,2013-01-05 07:35:00
12:55 AM,17.6,-27.4,12,29.94,10.0,West,16.1,-,N/A,,Clear,280,2013-01-05 07:55:00
1:15 AM,17.6,-27.4,12,29.94,10.0,WNW,15.0,-,N/A,,Clear,290,2013-01-05 08:15:00
1:35 AM,17.6,-27.4,12,29.95,10.0,West,15.0,-,N/A,,Clear,280,2013-01-05 08:35:00
1:55 AM,17.6,-25.6,13,29.96,10.0,West,13.8,-,N/A,,Clear,280,2013-01-05 08:55:00
2:15 AM,17.6,-25.6,13,29.96,10.0,West,12.7,-,N/A,,Clear,270,2013-01-05 09:15:00
2:35 AM,17.6,-22.0,16,29.96,10.0,West,15.0,-,N/A,,Clear,270,2013-01-05 09:35:00
2:55 AM,17.6,-23.8,15,29.96,10.0,West,12.7,-,N/A,,Clear,270,2013-01-05 09:55:00
3:15 AM,17.6,-22.0,16,29.97,10.0,West,10.4,-,N/A,,Clear,270,2013-01-05 10:15:00
3:35 AM,15.8,-22.0,17,29.98,10.0,West,15.0,-,N/A,,Clear,280,2013-01-05 10:35:00
3:55 AM,15.8,-22.0,17,29.98,10.0,West,10.4,-,N/A,,Clear,270,2013-01-05 10:55:00
4:15 AM,15.8,-22.0,17,29.97,10.0,West,11.5,-,N/A,,Clear,260,2013-01-05 11:15:00
4:55 AM,15.8,-20.2,19,29.98,10.0,West,12.7,17.3,N/A,,Clear,260,2013-01-05 11:55:00
5:15 AM,15.8,-18.4,21,29.98,10.0,West,15.0,-,N/A,,Clear,270,2013-01-05 12:15:00
5:35 AM,15.8,-18.4,21,29.98,10.0,West,15.0,-,N/A,,Clear,280,2013-01-05 12:35:00
5:55 AM,15.8,-18.4,21,29.99,10.0,West,13.8,-,N/A,,Clear,280,2013-01-05 12:55:00
6:15 AM,15.8,-18.4,21,30.00,10.0,West,12.7,-,N/A,,Clear,280,2013-01-05 13:15:00
6:35 AM,15.8,-18.4,21,30.01,10.0,West,12.7,-,N/A,,Clear,280,2013-01-05 13:35:00
6:55 AM,14.0,-18.4,22,30.02,10.0,WNW,13.8,-,N/A,,Clear,290,2013-01-05 13:55:00
7:15 AM,14.0,-18.4,22,30.02,10.0,West,12.7,-,N/A,,Clear,270,2013-01-05 14:15:00
7:35 AM,15.8,-18.4,21,30.03,10.0,West,12.7,-,N/A,,Clear,270,2013-01-05 14:35:00
7:55 AM,15.8,-18.4,21,30.03,10.0,WSW,12.7,-,N/A,,Clear,250,2013-01-05 14:55:00
8:15 AM,17.6,-16.6,21,30.04,10.0,WSW,12.7,-,N/A,,Clear,250,2013-01-05 15:15:00
8:55 AM,17.6,-16.6,21,30.05,10.0,WSW,11.5,-,N/A,,Clear,250,2013-01-05 15:55:00
9:15 AM,17.6,-16.6,21,30.05,10.0,WSW,12.7,-,N/A,,Clear,250,2013-01-05 16:15:00
9:55 AM,19.4,-14.8,21,30.07,10.0,West,12.7,18.4,N/A,,Clear,260,2013-01-05 16:55:00
10:15 AM,19.4,-14.8,21,30.07,10.0,West,12.7,-,N/A,,Clear,260,2013-01-05 17:15:00
10:35 AM,19.4,-14.8,21,30.07,10.0,West,11.5,17.3,N/A,,Clear,260,2013-01-05 17:35:00
10:55 AM,19.4,-14.8,21,30.08,10.0,West,12.7,-,N/A,,Clear,280,2013-01-05 17:55:00
11:15 AM,19.4,-13.0,23,30.08,10.0,WNW,15.0,19.6,N/A,,Clear,290,2013-01-05 18:15:00
11:35 AM,19.4,-9.4,28,30.07,10.0,WNW,13.8,20.7,N/A,,Clear,290,2013-01-05 18:35:00
11:55 AM,21.2,-9.4,26,30.07,10.0,WNW,12.7,-,N/A,,Clear,290,2013-01-05 18:55:00
12:15 PM,21.2,-9.4,26,30.06,10.0,West,12.7,20.7,N/A,,Clear,280,2013-01-05 19:15:00
12:35 PM,21.2,-9.4,26,30.06,10.0,West,15.0,21.9,N/A,,Clear,280,2013-01-05 19:35:00
12:55 PM,21.2,-9.4,26,30.05,10.0,West,17.3,23.0,N/A,,Clear,280,2013-01-05 19:55:00
1:15 PM,21.2,-9.4,26,30.06,10.0,WNW,13.8,25.3,N/A,,Clear,290,2013-01-05 20:15:00
1:35 PM,21.2,-9.4,26,30.06,10.0,WNW,11.5,21.9,N/A,,Clear,290,2013-01-05 20:35:00
1:55 PM,21.2,-11.2,24,30.06,10.0,West,15.0,20.7,N/A,,Clear,280,2013-01-05 20:55:00
2:15 PM,21.2,-9.4,26,30.07,10.0,West,16.1,23.0,N/A,,Clear,280,2013-01-05 21:15:00
2:35 PM,21.2,-9.4,26,30.07,10.0,West,16.1,19.6,N/A,,Clear,280,2013-01-05 21:35:00
2:55 PM,21.2,-7.6,28,30.08,10.0,West,13.8,-,N/A,,Clear,280,2013-01-05 21:55:00
3:15 PM,21.2,-7.6,28,30.09,10.0,West,12.7,-,N/A,,Clear,280,2013-01-05 22:15:00
3:55 PM,21.2,-4.0,33,30.10,10.0,West,9.2,-,N/A,,Clear,280,2013-01-05 22:55:00
4:15 PM,21.2,-5.8,30,30.11,10.0,West,10.4,-,N/A,,Clear,270,2013-01-05 23:15:00
4:35 PM,21.2,-4.0,33,30.11,10.0,West,11.5,-,N/A,,Clear,270,2013-01-05 23:35:00
4:55 PM,21.2,-4.0,33,30.12,10.0,West,11.5,-,N/A,,Clear,260,2013-01-05 23:55:00
5:15 PM,21.2,-4.0,33,30.13,10.0,West,10.4,-,N/A,,Clear,260,2013-01-06 00:15:00
5:35 PM,21.2,-4.0,33,30.13,10.0,WSW,9.2,-,N/A,,Clear,250,2013-01-06 00:35:00
5:55 PM,21.2,-5.8,30,30.13,10.0,WSW,9.2,-,N/A,,Clear,250,2013-01-06 00:55:00
6:15 PM,21.2,-4.0,33,30.14,10.0,WSW,9.2,-,N/A,,Clear,250,2013-01-06 01:15:00
6:35 PM,19.4,-2.2,39,30.14,10.0,WSW,9.2,-,N/A,,Clear,250,2013-01-06 01:35:00
6:55 PM,21.2,-0.4,39,30.14,10.0,WSW,10.4,-,N/A,,Clear,240,2013-01-06 01:55:00
7:15 PM,21.2,1.4,42,30.15,10.0,WSW,9.2,-,N/A,,Clear,250,2013-01-06 02:15:00
7:35 PM,21.2,3.2,46,30.15,10.0,South,5.8,-,N/A,,Clear,190,2013-01-06 02:35:00
7:55 PM,21.2,1.4,42,30.15,10.0,SW,10.4,-,N/A,,Clear,230,2013-01-06 02:55:00
8:15 PM,21.2,1.4,42,30.15,10.0,SW,10.4,-,N/A,,Clear,230,2013-01-06 03:15:00
8:35 PM,21.2,1.4,42,30.15,10.0,SW,8.1,-,N/A,,Clear,220,2013-01-06 03:35:00
8:55 PM,23.0,-2.2,33,30.15,10.0,SSW,6.9,-,N/A,,Clear,200,2013-01-06 03:55:00
9:15 PM,23.0,-4.0,31,30.15,10.0,South,5.8,-,N/A,,Clear,180,2013-01-06 04:15:00
9:35 PM,23.0,-2.2,33,30.15,10.0,SE,5.8,-,N/A,,Clear,130,2013-01-06 04:35:00
9:55 PM,23.0,-7.6,26,30.15,10.0,South,3.5,-,N/A,,Clear,170,2013-01-06 04:55:00
10:15 PM,23.0,-7.6,26,30.15,10.0,South,5.8,-,N/A,,Clear,180,2013-01-06 05:15:00
10:35 PM,23.0,-9.4,24,30.15,10.0,South,4.6,-,N/A,,Clear,170,2013-01-06 05:35:00
10:55 PM,23.0,-9.4,24,30.15,10.0,SSE,3.5,-,N/A,,Clear,150,2013-01-06 05:55:00
11:15 PM,24.8,-13.0,19,30.14,10.0,SSE,4.6,-,N/A,,Clear,160,2013-01-06 06:15:00
11:35 PM,24.8,-20.2,13,30.13,10.0,SE,4.6,-,N/A,,Clear,140,2013-01-06 06:35:00
11:55 PM,23.0,-13.0,20,30.13,10.0,ESE,5.8,-,N/A,,Clear,120,2013-01-06 06:55:00